CW7529 Weather Reports


Display with metric or nautical units.
time (UTC)temp
F
wind
direction
speed
MPH
gust
MPH
rain 1hr
in
rain 24hr
in
rain mn
in
humidity
%
barometer
mb
20180718202906 86 101 3.0 8.0 0.00 0.00 0.00 53 1015.4
20180718202401 86 100 4.0 9.0 0.00 0.00 0.00 53 1015.4
20180718201852 86 98 5.0 8.0 0.00 0.00 0.00 55 1015.4
20180718201344 86 132 3.0 9.0 0.00 0.00 0.00 50 1015.4
20180718200842 86 190 2.0 10.0 0.00 0.00 0.00 50 1015.4
20180718200335 86 150 4.0 10.0 0.00 0.00 0.00 47 1015.4
20180718195826 86 139 1.0 9.0 0.00 0.00 0.00 50 1015.7
20180718195320 86 170 2.0 9.0 0.00 0.00 0.00 54 1015.7
20180718194814 86 175 3.0 9.0 0.00 0.00 0.00 51 1015.4
20180718194305 87 192 3.0 8.0 0.00 0.00 0.00 48 1015.4
20180718193758 87 94 4.0 7.0 0.00 0.00 0.00 48 1015.7
20180718193253 87 140 4.0 8.0 0.00 0.00 0.00 49 1015.7
20180718192744 87 103 3.0 8.0 0.00 0.00 0.00 51 1015.7
20180718192243 87 204 2.0 7.0 0.00 0.00 0.00 51 1015.7
20180718191737 87 187 0.0 8.0 0.00 0.00 0.00 50 1016.1
20180718191232 86 103 2.0 8.0 0.00 0.00 0.00 47 1016.1
20180718190723 86 194 1.0 6.0 0.00 0.00 0.00 47 1016.1
20180718190216 86 212 2.0 4.0 0.00 0.00 0.00 46 1016.1
20180718185711 85 191 1.0 4.0 0.00 0.00 0.00 55 1016.1
20180718185203 85 82 3.0 7.0 0.00 0.00 0.00 51 1016.1
20180718184657 85 203 1.0 6.0 0.00 0.00 0.00 52 1016.1
20180718184151 85 176 2.0 7.0 0.00 0.00 0.00 53 1016.4
20180718183642 85 200 3.0 7.0 0.00 0.00 0.00 50 1016.4
20180718183135 85 195 2.0 6.0 0.00 0.00 0.00 52 1016.4
20180718182630 85 177 1.0 8.0 0.00 0.00 0.00 54 1016.4
20180718182121 85 85 3.0 8.0 0.00 0.00 0.00 53 1016.4
20180718181615 85 205 1.0 8.0 0.00 0.00 0.00 54 1016.7
20180718181109 85 128 4.0 7.0 0.00 0.00 0.00 54 1016.7
20180718180601 85 154 2.0 6.0 0.00 0.00 0.00 50 1016.7
20180718180054 85 200 1.0 4.0 0.00 0.00 0.00 58 1016.7
20180718175549 85 179 3.0 7.0 0.00 0.00 0.00 56 1016.7
20180718175041 85 145 1.0 7.0 0.00 0.00 0.00 54 1016.7
20180718174534 85 201 3.0 8.0 0.00 0.00 0.00 52 1016.7
20180718174028 85 87 4.0 8.0 0.00 0.00 0.00 49 1016.7
20180718173522 85 103 3.0 7.0 0.00 0.00 0.00 56 1016.7
20180718173015 85 149 4.0 6.0 0.00 0.00 0.00 53 1016.7
20180718172510 85 197 1.0 7.0 0.00 0.00 0.00 56 1016.7
20180718172002 85 166 4.0 7.0 0.00 0.00 0.00 56 1017.1
20180718171455 85 212 2.0 9.0 0.00 0.00 0.00 56 1016.7
20180718170950 84 146 4.0 9.0 0.00 0.00 0.00 52 1016.7
20180718170442 84 206 3.0 7.0 0.00 0.00 0.00 53 1016.7
20180718165935 84 131 5.0 7.0 0.00 0.00 0.00 54 1017.1
20180718165430 84 185 1.0 6.0 0.00 0.00 0.00 55 1017.1
20180718164921 84 168 2.0 11.0 0.00 0.00 0.00 57 1017.1
20180718164415 84 185 1.0 11.0 0.00 0.00 0.00 59 1017.1
20180718163909 84 195 2.0 10.0 0.00 0.00 0.00 54 1017.1
20180718163359 83 191 1.0 10.0 0.00 0.00 0.00 56 1017.4
20180718162852 83 209 1.0 8.0 0.00 0.00 0.00 58 1017.4
20180718162346 83 195 2.0 8.0 0.00 0.00 0.00 61 1017.4
20180718161838 83 201 1.0 7.0 0.00 0.00 0.00 59 1017.1
20180718161330 82 192 1.0 7.0 0.00 0.00 0.00 61 1017.4
20180718160825 82 218 2.0 8.0 0.00 0.00 0.00 60 1017.4
20180718160317 82 181 2.0 8.0 0.00 0.00 0.00 61 1017.8
20180718155810 82 122 2.0 6.0 0.00 0.00 0.00 61 1017.8
20180718155303 81 87 1.0 6.0 0.00 0.00 0.00 63 1017.8
20180718154754 81 170 4.0 6.0 0.00 0.00 0.00 61 1017.8
20180718154248 80 214 1.0 7.0 0.00 0.00 0.00 64 1017.8
20180718153744 80 136 4.0 7.0 0.00 0.00 0.00 65 1017.4
20180718153234 80 61 2.0 6.0 0.00 0.00 0.00 67 1017.8
20180718152726 80 190 1.0 7.0 0.00 0.00 0.00 66 1017.8
20180718152221 80 179 2.0 7.0 0.00 0.00 0.00 66 1017.8
20180718151713 80 78 6.0 7.0 0.00 0.00 0.00 66 1017.8
20180718151205 80 139 2.0 6.0 0.00 0.00 0.00 66 1017.8
20180718150700 79 149 3.0 6.0 0.00 0.00 0.00 69 1017.4
20180718150152 79 122 5.0 6.0 0.00 0.00 0.00 66 1017.8
20180718145644 78 189 0.0 2.0 0.00 0.00 0.00 68 1017.8
20180718145139 78 139 2.0 3.0 0.00 0.00 0.00 67 1017.8
20180718144613 78 206 1.0 3.0 0.00 0.00 0.00 69 1018.1
20180718144104 77 116 1.0 4.0 0.00 0.00 0.00 69 1018.1
20180718143558 77 176 1.0 4.0 0.00 0.00 0.00 70 1018.1
20180718143052 76 125 3.0 4.0 0.00 0.00 0.00 70 1018.1
20180718142553 76 179 0.0 4.0 0.00 0.00 0.00 74 1017.8
20180718142043 76 147 2.0 3.0 0.00 0.00 0.00 74 1017.8
20180718141544 75 179 0.0 4.0 0.00 0.00 0.00 73 1017.8
20180718141035 75 197 0.0 4.0 0.00 0.00 0.00 79 1017.8
20180718140530 74 67 1.0 4.0 0.00 0.00 0.00 75 1017.8
20180718140021 74 182 2.0 3.0 0.00 0.00 0.00 78 1017.8
20180718135514 74 179 1.0 6.0 0.00 0.00 0.00 80 1018.1
20180718135009 74 114 1.0 6.0 0.00 0.00 0.00 79 1017.8
20180718134501 73 210 1.0 4.0 0.00 0.00 0.00 79 1018.1
20180718133954 73 178 2.0 3.0 0.00 0.00 0.00 80 1018.1
20180718133449 73 198 1.0 6.0 0.00 0.00 0.00 82 1018.1
20180718132940 73 188 2.0 6.0 0.00 0.00 0.00 82 1018.1
20180718132433 73 134 2.0 6.0 0.00 0.00 0.00 79 1018.1
20180718131927 73 177 2.0 4.0 0.00 0.00 0.00 81 1018.1
20180718131420 73 74 1.0 4.0 0.00 0.00 0.00 80 1018.1
20180718130912 72 138 2.0 4.0 0.00 0.00 0.00 80 1018.4
20180718130407 72 136 2.0 4.0 0.00 0.00 0.00 80 1018.1
20180718125859 72 125 2.0 3.0 0.00 0.00 0.00 80 1018.1
20180718125352 71 137 2.0 6.0 0.00 0.00 0.00 79 1018.1
20180718124847 71 147 2.0 6.0 0.00 0.00 0.00 80 1018.1
20180718124339 70 117 1.0 4.0 0.00 0.00 0.00 79 1018.1
20180718123832 69 133 2.0 3.0 0.00 0.00 0.00 81 1018.1
20180718123326 69 131 1.0 3.0 0.00 0.00 0.00 82 1018.1
20180718122818 68 133 1.0 2.0 0.00 0.00 0.00 83 1017.8
20180718122312 67 134 1.0 3.0 0.00 0.00 0.00 84 1018.1
20180718121806 67 133 1.0 2.0 0.00 0.00 0.00 86 1017.8
20180718121259 66 187 0.0 1.0 0.00 0.00 0.00 90 1017.8
20180718120802 66 188 0.0 1.0 0.00 0.00 0.00 92 1018.1
20180718120246 66 188 0.0 0.0 0.00 0.00 0.00 92 1018.1
20180718115738 66 188 0.0 0.0 0.00 0.00 0.00 92 1017.8
20180718115231 66 188 0.0 0.0 0.00 0.00 0.00 92 1018.1
20180718114736 65 188 0.0 0.0 0.00 0.00 0.00 92 1018.1
20180718114236 65 188 0.0 1.0 0.00 0.00 0.00 93 1017.8
20180718113734 65 188 0.0 1.0 0.00 0.00 0.00 93 1017.8
20180718113217 65 188 0.0 0.0 0.00 0.00 0.00 94 1018.1
20180718112707 65 198 0.0 0.0 0.00 0.00 0.00 95 1018.1
20180718112204 65 198 0.0 0.0 0.00 0.00 0.00 96 1018.1
20180718111653 65 209 0.0 0.0 0.00 0.00 0.00 96 1018.1
20180718111147 65 209 0.0 0.0 0.00 0.00 0.00 96 1018.1
20180718110642 65 209 0.0 2.0 0.00 0.00 0.00 95 1017.8
20180718110133 65 210 0.0 2.0 0.00 0.00 0.00 94 1017.8
20180718105627 65 209 1.0 2.0 0.00 0.00 0.00 93 1017.8
20180718105121 65 208 0.0 2.0 0.00 0.00 0.00 93 1017.8
20180718104613 65 188 0.0 1.0 0.00 0.00 0.00 92 1017.8
20180718104107 65 188 0.0 1.0 0.00 0.00 0.00 92 1017.4
20180718103602 65 188 0.0 0.0 0.00 0.00 0.00 92 1017.4
20180718103054 66 188 0.0 0.0 0.00 0.00 0.00 92 1017.4
20180718102547 66 188 0.0 0.0 0.00 0.00 0.00 91 1017.4
20180718102041 66 188 0.0 2.0 0.00 0.00 0.00 90 1017.4
20180718101534 65 188 0.0 2.0 0.00 0.00 0.00 88 1017.1
20180718101028 65 164 1.0 2.0 0.00 0.00 0.00 88 1017.4
20180718100522 65 184 0.0 2.0 0.00 0.00 0.00 90 1017.1
20180718100014 65 171 0.0 2.0 0.00 0.00 0.00 90 1017.1
20180718095507 65 191 0.0 2.0 0.00 0.00 0.00 91 1017.4
20180718095003 64 187 0.0 2.0 0.00 0.00 0.00 93 1017.1
20180718094455 64 169 1.0 2.0 0.00 0.00 0.00 94 1017.8
20180718093947 64 178 0.0 0.0 0.00 0.00 0.00 94 1017.8
20180718093444 64 191 0.0 1.0 0.00 0.00 0.00 94 1017.4
20180718092936 64 191 0.0 1.0 0.00 0.00 0.00 93 1017.4
20180718092428 64 191 0.0 1.0 0.00 0.00 0.00 94 1017.8
20180718091923 64 191 0.0 1.0 0.00 0.00 0.00 94 1017.8
20180718091416 65 175 1.0 1.0 0.00 0.00 0.00 95 1017.8
20180718090908 65 207 0.0 0.0 0.00 0.00 0.00 95 1017.8
20180718090403 66 208 0.0 1.0 0.00 0.00 0.00 94 1017.8
20180718085855 66 207 0.0 1.0 0.00 0.00 0.00 94 1017.8
20180718085349 66 188 1.0 1.0 0.00 0.00 0.00 93 1017.8
20180718084844 66 188 0.0 1.0 0.00 0.00 0.00 90 1017.8
20180718084336 66 188 0.0 1.0 0.00 0.00 0.00 88 1017.8
20180718083829 66 188 0.0 1.0 0.00 0.00 0.00 88 1017.8
20180718083324 66 188 0.0 1.0 0.00 0.00 0.00 88 1017.8
20180718082816 67 181 0.0 1.0 0.00 0.00 0.00 89 1017.8
20180718082309 67 187 0.0 0.0 0.00 0.00 0.00 90 1017.8
20180718081804 67 191 0.0 0.0 0.00 0.00 0.00 90 1017.8
20180718081256 67 191 0.0 0.0 0.00 0.00 0.00 90 1017.8
20180718080750 66 191 0.0 1.0 0.00 0.00 0.00 88 1018.1
20180718080244 66 186 0.0 1.0 0.00 0.00 0.00 87 1017.8
20180718075736 66 188 0.0 1.0 0.00 0.00 0.00 89 1017.8
20180718075230 66 186 0.0 1.0 0.00 0.00 0.00 90 1017.8
20180718074724 66 186 0.0 0.0 0.00 0.00 0.00 91 1017.8
20180718074216 66 186 0.0 0.0 0.00 0.00 0.00 92 1017.8
20180718073710 66 186 0.0 0.0 0.00 0.00 0.00 93 1017.8
20180718073205 66 187 0.0 0.0 0.00 0.00 0.00 92 1018.1
20180718072657 66 187 0.0 0.0 0.00 0.00 0.00 92 1018.1
20180718072149 66 187 0.0 0.0 0.00 0.00 0.00 92 1017.8
20180718071645 65 187 0.0 0.0 0.00 0.00 0.00 93 1018.1
20180718071140 65 186 0.0 0.0 0.00 0.00 0.00 95 1017.8
20180718070633 65 186 0.0 0.0 0.00 0.00 0.00 95 1017.8
20180718070126 65 186 0.0 0.0 0.00 0.00 0.00 95 1018.1
20180718065620 65 186 0.0 0.0 0.00 0.00 0.00 95 1017.8
20180718065113 65 186 0.0 0.0 0.00 0.00 0.00 96 1017.8
20180718064607 65 186 0.0 0.0 0.00 0.00 0.00 95 1018.1
20180718064113 65 187 0.0 0.0 0.00 0.00 0.00 95 1017.8
20180718063554 66 186 0.0 0.0 0.00 0.00 0.00 94 1017.8
20180718063047 66 187 0.0 0.0 0.00 0.00 0.00 94 1018.1
20180718062541 67 186 0.0 0.0 0.00 0.00 0.00 93 1017.8
20180718062033 67 186 0.0 0.0 0.00 0.00 0.00 92 1018.1
20180718061527 67 186 0.0 0.0 0.00 0.00 0.00 90 1017.8
20180718061022 67 186 0.0 0.0 0.00 0.00 0.00 89 1017.8
20180718060515 67 187 0.0 0.0 0.00 0.00 0.00 90 1017.8
20180718060008 67 186 0.0 0.0 0.00 0.00 0.00 88 1018.1
20180718055503 67 186 0.0 0.0 0.00 0.00 0.00 88 1017.8
20180718054954 67 186 0.0 0.0 0.00 0.00 0.00 89 1017.8
20180718054448 67 186 0.0 0.0 0.00 0.00 0.00 92 1017.8
20180718053943 67 186 0.0 0.0 0.00 0.00 0.00 94 1017.8
20180718053435 67 187 0.0 0.0 0.00 0.00 0.00 94 1017.8
20180718052928 67 187 0.0 0.0 0.00 0.00 0.00 94 1018.1
20180718052424 67 187 0.0 0.0 0.00 0.00 0.00 92 1017.8
20180718051916 68 187 0.0 0.0 0.00 0.00 0.00 92 1017.8
20180718051409 68 187 0.0 0.0 0.00 0.00 0.00 91 1017.8
20180718050904 68 187 0.0 0.0 0.00 0.00 0.00 90 1017.8
20180718050356 67 187 0.0 0.0 0.00 0.00 0.00 89 1017.8
20180718045849 67 187 0.0 0.0 0.00 0.00 0.00 89 1017.8
20180718045344 67 187 0.0 0.0 0.00 0.00 0.00 89 1017.8
20180718044835 67 187 0.0 0.0 0.00 0.00 0.00 90 1017.8
20180718044330 68 187 0.0 0.0 0.00 0.00 0.00 89 1017.8
20180718044325 68 187 0.0 0.0 0.00 0.00 0.00 89 1017.8
20180718043316 69 187 0.0 0.0 0.00 0.00 0.00 88 1017.8
20180718042810 69 187 0.0 0.0 0.00 0.00 0.00 86 1017.8
20180718042304 70 187 0.0 0.0 0.00 0.00 0.00 85 1017.8
20180718041801 70 187 0.0 0.0 0.00 0.00 0.00 83 1017.8
20180718041249 70 187 0.0 0.0 0.00 0.00 0.00 81 1017.8
20180718040745 70 187 0.0 0.0 0.00 0.00 0.00 79 1017.8
20180718040237 70 187 0.0 1.0 0.00 0.00 0.00 77 1017.8
20180718035731 70 187 0.0 1.0 0.00 0.00 0.00 77 1017.8
20180718035225 70 187 0.0 0.0 0.00 0.00 0.00 77 1017.8
20180718034719 70 187 0.0 0.0 0.00 0.00 0.00 78 1017.8
20180718034214 71 187 0.0 0.0 0.00 0.00 0.00 80 1017.4
20180718033706 71 187 0.0 0.0 0.00 0.00 0.00 78 1017.8
20180718033200 71 187 0.0 0.0 0.00 0.00 0.00 76 1017.4
20180718032656 71 187 0.0 0.0 0.00 0.00 0.00 75 1017.4
20180718032149 71 187 0.0 0.0 0.00 0.00 0.00 74 1017.4
20180718031641 71 187 0.0 1.0 0.00 0.00 0.00 74 1017.8
20180718031135 70 187 0.0 1.0 0.00 0.00 0.00 75 1017.4
20180718030630 70 187 0.0 1.0 0.00 0.00 0.00 77 1017.8
20180718030122 70 187 0.0 0.0 0.00 0.00 0.00 76 1017.4
20180718025615 69 187 0.0 0.0 0.00 0.00 0.00 76 1017.4
20180718025110 69 187 0.0 0.0 0.00 0.00 0.00 79 1017.4
20180718024603 70 187 0.0 0.0 0.00 0.00 0.00 83 1017.4
20180718024056 71 187 0.0 0.0 0.00 0.00 0.00 83 1017.8
20180718023550 71 187 0.0 0.0 0.00 0.00 0.00 82 1017.4
20180718023043 72 187 0.0 0.0 0.00 0.00 0.00 80 1017.1
20180718022535 72 187 0.0 0.0 0.00 0.00 0.00 80 1017.4
20180718022031 72 187 0.0 0.0 0.00 0.00 0.00 78 1017.4
20180718021523 73 187 0.0 0.0 0.00 0.00 0.00 76 1017.1
20180718021015 73 187 0.0 1.0 0.00 0.00 0.00 75 1017.1
20180718020511 74 187 0.0 1.0 0.00 0.00 0.00 75 1017.1
20180718020003 74 187 0.0 0.0 0.00 0.00 0.00 76 1017.4
20180718015459 75 187 0.0 1.0 0.00 0.00 0.00 75 1017.1
20180718014957 76 187 0.0 1.0 0.00 0.00 0.00 75 1017.1
20180718014450 77 188 0.0 0.0 0.00 0.00 0.00 74 1017.1
20180718013944 78 188 0.0 1.0 0.00 0.00 0.00 71 1017.1
20180718013435 78 188 0.0 1.0 0.00 0.00 0.00 70 1017.1
20180718012929 79 188 0.0 1.0 0.00 0.00 0.00 68 1017.1
20180718012423 80 188 0.0 1.0 0.00 0.00 0.00 65 1017.4
20180718011915 80 175 0.0 1.0 0.00 0.00 0.00 64 1017.1
20180718011408 81 175 0.0 2.0 0.00 0.00 0.00 63 1017.1
20180718010904 82 175 0.0 2.0 0.00 0.00 0.00 63 1017.1
20180718010355 82 176 1.0 1.0 0.00 0.00 0.00 61 1017.1
20180718005848 82 175 0.0 1.0 0.00 0.00 0.00 62 1017.4
20180718005343 83 178 0.0 1.0 0.00 0.00 0.00 59 1017.1
20180718004835 83 178 0.0 1.0 0.00 0.00 0.00 59 1017.1
20180718004328 83 179 1.0 1.0 0.00 0.00 0.00 58 1017.4
20180718003822 83 179 0.0 1.0 0.00 0.00 0.00 58 1017.4
20180718003314 83 179 0.0 1.0 0.00 0.00 0.00 56 1017.1
20180718002807 83 179 0.0 2.0 0.00 0.00 0.00 55 1017.4
20180718002304 83 179 0.0 2.0 0.00 0.00 0.00 54 1017.4
20180718001755 83 179 0.0 2.0 0.00 0.00 0.00 58 1017.4
20180718001247 83 175 1.0 2.0 0.00 0.00 0.00 54 1017.4
20180718000740 83 182 0.0 2.0 0.00 0.00 0.00 55 1017.4
20180718000231 83 177 1.0 2.0 0.00 0.00 0.00 53 1017.4
20180717235725 84 178 0.0 2.0 0.00 0.00 0.00 54 1017.4
20180717235221 84 179 2.0 2.0 0.00 0.00 0.00 53 1017.8
20180717234710 84 175 0.0 3.0 0.00 0.00 0.00 54 1017.8
20180717234204 84 174 1.0 3.0 0.00 0.00 0.00 50 1017.4
20180717233705 84 176 2.0 2.0 0.00 0.00 0.00 52 1017.4
20180717233150 83 197 0.0 3.0 0.00 0.00 0.00 52 1017.8
20180717232643 83 201 2.0 3.0 0.00 0.00 0.00 49 1017.8
20180717232138 83 192 1.0 3.0 0.00 0.00 0.00 54 1017.8
20180717231630 83 141 2.0 3.0 0.00 0.00 0.00 55 1017.8
20180717231123 83 137 2.0 4.0 0.00 0.00 0.00 53 1017.8
20180717230618 83 171 1.0 4.0 0.00 0.00 0.00 55 1017.8
20180717230109 84 187 1.0 3.0 0.00 0.00 0.00 52 1018.1
20180717225603 84 188 1.0 3.0 0.00 0.00 0.00 54 1018.1
20180717225057 85 221 1.0 3.0 0.00 0.00 0.00 54 1018.1
20180717224549 85 188 1.0 4.0 0.00 0.00 0.00 52 1018.1
20180717224042 85 181 1.0 6.0 0.00 0.00 0.00 47 1018.1
20180717223538 85 178 2.0 6.0 0.00 0.00 0.00 47 1018.1
20180717223030 85 188 2.0 6.0 0.00 0.00 0.00 52 1018.1
20180717222523 85 51 1.0 4.0 0.00 0.00 0.00 51 1018.1
20180717222016 85 119 3.0 4.0 0.00 0.00 0.00 47 1018.1
20180717221508 85 352 1.0 7.0 0.00 0.00 0.00 51 1018.4
20180717221002 85 9 2.0 7.0 0.00 0.00 0.00 49 1018.1
20180717220457 85 188 1.0 4.0 0.00 0.00 0.00 51 1018.4
20180717215948 84 108 3.0 4.0 0.00 0.00 0.00 48 1018.1
20180717215442 84 174 2.0 4.0 0.00 0.00 0.00 52 1018.1
20180717214936 84 137 3.0 4.0 0.00 0.00 0.00 48 1018.1
20180717214434 84 186 2.0 4.0 0.00 0.00 0.00 49 1018.4
20180717213931 84 199 2.0 6.0 0.00 0.00 0.00 51 1018.4
20180717213421 84 144 2.0 6.0 0.00 0.00 0.00 51 1018.4
20180717212913 84 122 1.0 4.0 0.00 0.00 0.00 53 1018.4
20180717212408 84 136 2.0 6.0 0.00 0.00 0.00 51 1018.4
20180717211900 84 205 1.0 6.0 0.00 0.00 0.00 49 1018.4
20180717211359 84 182 0.0 4.0 0.00 0.00 0.00 53 1018.4
20180717210851 84 135 2.0 4.0 0.00 0.00 0.00 50 1018.9
20180717210346 84 196 1.0 4.0 0.00 0.00 0.00 53 1018.4
20180717205838 84 204 0.0 4.0 0.00 0.00 0.00 50 1018.9
20180717205331 85 87 1.0 4.0 0.00 0.00 0.00 49 1018.4
20180717204827 85 100 4.0 4.0 0.00 0.00 0.00 46 1018.9
20180717204319 84 143 2.0 7.0 0.00 0.00 0.00 49 1018.4
20180717203811 84 182 2.0 7.0 0.00 0.00 0.00 51 1018.4
20180717203306 84 6 2.0 4.0 0.00 0.00 0.00 49 1018.4